User: anonymous   Login
Location: Lynch Observatory
(39.9540°N, 75.1861°W)
Time: 19:15:45
(UTC-04:00)
Language:

ITAMSAT 1 - Orbit

View from above orbital plane
View from above orbital plane
View from above satellite
View from above satellite

Ground track
Ground track

The orbit data is extracted from the following two-line orbital elements,

1 22826U 93061D   24115.11268054  .00000481  00000-0  20064-3 0  9997
2 22826  98.7884 167.1737 0008311 216.1666 143.8955 14.30844305595162
Epoch (UTC): 24 April 2024 02:42:15
Eccentricity: 0.0008311
inclination: 98.7884°
perigee height: 783 km
apogee height: 795 km
right ascension of ascending node: 167.1737°
argument of perigee: 216.1666°
revolutions per day: 14.30844305
mean anomaly at epoch: 143.8955°
orbit number at epoch: 59516

The dashed part of the orbit path shows where the satellite is in the earth's shadow,  

DLR